sat.trackr.live / text

‹ back to catalog

STARLINK-33673

NORAD 63284 · 2025-053V

PAYLOAD ACTIVE UNKNOWN

§ Identity

Operator
Country
US
Launch date
2025-03-15
Launch site
AFETR
Launch vehicle
Mass (kg)
RCS (m²)

Purposes: comms

External: N2YO · Heavens-Above · Gunter

§ Orbital elements

Epoch: 2026-05-25T01:31:01.211808Z

Period
94.26 min
Inclination
42.9966°
Eccentricity
0.0000541
Mean motion
15.27668725 rev/d
Perigee alt
482.4 km
Apogee alt
483.2 km
Semi-major
6,860.9 km
B*
9.9089e-4
RAAN
162.6702°
Arg perigee
277.3954°
Mean anomaly
82.6836°
Rev number
6,807

§ Raw data

STARLINK-336731 63284U 25053V   26145.06320847  .00027179  00000+0  99089-3 0  99992 63284  42.9966 162.6702 0000541 277.3954  82.6836 15.27668725 68075

JSON: /api/v1/satellites/63284 · /tle

For live sub-satellite position, see the globe view (requires WebGL).

§ Visibility from observer

Set your observer location to see the next 7 days of passes ≥ 10°. The values pass through the URL so the page stays shareable.

No JS? Fill the form by hand. The geolocation button needs JavaScript.